Preview of NWS' New Version of Forecast
This preview is not operational and should not be used for support decisions.

Regional Weather Roundup (RWR)

Issued by National Weather Service (NWS)

                            
000
ASUS44 KJAN 190210
RWRMS 

MISSISSIPPI HOURLY WEATHER ROUNDUP
NATIONAL WEATHER SERVICE JACKSON MS
800 PM CST MON FEB 18 2019

NOTE: "FAIR: INDICATES FEW OR NO CLOUDS BELOW 12,000 FEET WITH NO
SIGNIFICANT WEATHER AND/OR OBSTRUCTIONS TO VISIBILITY.

MSZ001>002-007>008-010>013-018>021-025>028-034>036-190300-
NORTHWEST MISSISSIPPI
  
CITY           SKY/WX    TMP DP  RH WIND       PRES   REMARKS
BATESVILLE     FAIR      39  28  65 NE6       30.40S WCI  35          
CLARKSDALE     CLEAR     37  30  75 N10       30.41S WCI  30          
CLEVELAND      FAIR      38  30  74 NE8       30.40R WCI  32          
GREENWOOD      FAIR      39  33  79 N5        30.39R                  
GREENVILLE     FAIR      38  31  76 NE9       30.38R WCI  31          
OLIVE BRANCH   MOCLDY    34  25  69 NE12      30.42S WCI  25          
OXFORD         FAIR      36  27  69 N8        30.42S WCI  29          
TUNICA           N/A     34  28  80 N12       30.44R WCI  25          
WINONA         FAIR      39  32  75 NE6       30.37F WCI  35          
$$

MSZ003>006-009-014>017-022>024-029>033-037>039-190300-
NORTHEAST MISSISSIPPI
  
CITY           SKY/WX    TMP DP  RH WIND       PRES   REMARKS
ABERDEEN       FAIR      41  34  75 N6        30.41S                  
COLUMBUS AFB   MOCLDY    43  32  65 NE3       30.39R                  
CORINTH        FAIR      37  27  65 N6        30.43R WCI  33          
GOLDN TRIANGLE FAIR      39  33  79 N6        30.39R WCI  35          
STARKVILLE     FAIR      41  32  70 N5        30.40R                  
TUPELO         FAIR      40  29  64 N10       30.40R WCI  33          
$$

MSZ040-058-190300-
CENTRAL MISSISSIPPI
  
CITY           SKY/WX    TMP DP  RH WIND       PRES   REMARKS
JACKSON INTL   CLOUDY    47  36  65 N14       30.29S                  
JACKSON HAWKNS CLOUDY    48  36  63 N7G16     30.30S                  
MADISON        CLOUDY    43  34  70 NE7       30.30S                  
MERIDIAN KEY   CLOUDY    50  37  61 N14       30.30R                  
MERIDIAN NAS   CLOUDY    47  38  71 N12       30.31F                  
RAYMOND          N/A     46  37  71 N8        30.29F                  
VICKSBURG VKS  MOCLDY    45  34  65 N10       30.30S                  
$$

MSZ059>079-190300-
SOUTH MISSISSIPPI
  
CITY           SKY/WX    TMP DP  RH WIND       PRES   REMARKS
HATTIESBURG    CLOUDY    51  38  60 NE8       30.28R                  
LAUREL         CLOUDY    49  37  62 NE8       30.29R                  
MCCOMB         CLOUDY    52  31  44 NE8       30.24R                  
NATCHEZ        CLOUDY    45  36  70 N7        30.28R                  
PINE BELT      CLOUDY    50  38  63 NE9       30.29R                  
$$

MSZ080>082-190300-
COASTAL MISSISSIPPI
  
CITY           SKY/WX    TMP DP  RH WIND       PRES   REMARKS
BAY ST LOUIS   CLOUDY    55  36  47 NE12      30.21R                  
BILOXI         CLOUDY    56  40  56 NE14      30.20R                  
PASCAGOULA     CLOUDY    58  40  51 N10       30.20R                  
GULFPORT       LGT RAIN  56  39  53 NE10      30.20R                  
$$

LAZ007>009-015>016-023>026-190300-
NORTHEAST LOUISIANA
  
CITY           SKY/WX    TMP DP  RH WIND       PRES   REMARKS
BASTROP        CLOUDY    40  29  65 N7        30.35S                  
TALLULAH/VBURG CLOUDY    43  33  68 NE17      30.31F                  
VIDALIA        CLOUDY    45  36  71 NE12      30.26S                  
$$